Simultaneous Nadir Overpasses (SNOs) Predictions

Prediction of SNOs between AQUA and LANDSAT-8 Satellite Orbit:

Table of predicted SNOs for the next 14.0 days since TLE Epoch: 9/20/2025
Index Date (AQUA) Time (AQUA) Lat,Lon (AQUA) SZA (AQUA ) Date (LANDSAT-8) Time (LANDSAT-8) Lat,Lon (LANDSAT-8) SZA (LANDSAT-8 ) Distance(km) Time Diff (sec)
1 09/20/2025 19:01:09 75.27, -95.73 74.71 09/20/2025 19:00:05 75.24, -98.86 74.53 88.82 64
2 09/20/2025 19:50:35 -75.73, 70.62 104.89 09/20/2025 19:49:23 -75.71, 70.10 104.94 14.27 72
3 09/20/2025 20:39:55 75.80,-121.93 75.19 09/20/2025 20:38:47 75.79,-122.01 75.17 2.51 68
4 09/20/2025 21:29:12 -75.81, 45.72 104.79 09/20/2025 21:28:14 -75.81, 45.69 104.80 0.77 58
5 09/20/2025 22:18:31 75.84,-146.68 75.25 09/20/2025 22:17:39 75.85,-146.57 75.25 3.21 52
6 09/20/2025 23:07:48 -75.85, 20.97 104.73 09/20/2025 23:07:07 -75.82, 20.98 104.77 3.35 41
7 09/20/2025 23:57:06 75.82,-171.28 75.26 09/20/2025 23:56:32 75.85,-171.27 75.29 3.22 34
8 09/21/2025 00:46:23 -75.83, -3.63 104.72 09/21/2025 00:46:00 -75.82, -3.72 104.74 2.65 23
9 09/21/2025 01:35:42 75.86, 163.97 75.32 09/21/2025 01:35:25 75.86, 164.02 75.32 1.44 17
10 09/21/2025 02:24:59 -75.87, -28.39 104.66 09/21/2025 02:24:52 -75.88, -28.28 104.65 3.05 7
11 09/21/2025 03:14:17 75.84, 139.37 75.33 09/21/2025 03:14:18 75.86, 139.31 75.35 2.53 1
12 09/21/2025 04:03:34 -75.85, -52.99 104.65 09/21/2025 04:03:45 -75.88, -52.99 104.62 3.25 11
13 09/21/2025 04:52:53 75.88, 114.61 75.39 09/21/2025 04:53:11 75.87, 114.61 75.38 1.18 18
14 09/21/2025 05:42:10 -75.89, -77.74 104.59 09/21/2025 05:42:38 -75.89, -77.69 104.58 1.26 28
15 09/21/2025 06:31:28 75.86, 90.01 75.41 09/21/2025 06:32:04 75.87, 89.90 75.42 3.14 36
16 09/21/2025 07:20:45 -75.87,-102.34 104.58 09/21/2025 07:21:31 -75.89,-102.40 104.55 2.68 46
17 09/21/2025 08:10:04 75.90, 65.26 75.46 09/21/2025 08:10:57 75.88, 65.20 75.45 2.87 53
18 09/21/2025 08:59:21 -75.91,-127.09 104.52 09/21/2025 09:00:24 -75.90,-127.10 104.52 1.13 63
19 09/21/2025 09:48:40 75.93, 40.51 75.52 09/21/2025 09:49:49 75.93, 40.64 75.54 3.63 69
20 09/21/2025 10:38:03 -76.23,-152.78 104.21 09/21/2025 10:39:11 -76.19,-150.90 104.16 49.95 68



Historial Predications of SNOs between AQUA and LANDSAT-8
